Flag for Poland Weather past 2 weeks in Słupsk, Poland

32 °F

Partly cloudy.

Feels Like: 27 °F
Forecast: 35 / 39 °F
Wind: 5 mph from South

Location: Gdansk-Rebiechowo

Current Time: Nov 26, 2015 at 12:22:56 AM

Latest Report: Nov 26, 2015 at 12:00 AM

Visibility: 4 mi

Pressure: 29.71 "Hg

Humidity: 87%

Dew point: 28 °F

Location of SłupskLocation

Historic Weather in Słupsk — Graph


Słupsk temperature yesterday

Maximum temperature yesterday: 32 °F (at 12:00 AM)
Minimum temperature yesterday: 27 °F (at 7:00 AM)
Average temperature yesterday: 31 °F

Past Weeks' High & Low Weather Summary

High55 °F (Nov 10, 11:00 PM)100% (Nov 11, 10:30 PM)30.18 "Hg (Nov 11, 10:30 PM)
Low27 °F (Nov 25, 7:00 AM)65% (Nov 21, 1:30 PM)29.27 "Hg (Nov 18, 6:00 AM)
Average42 °F89%29.72 "Hg
* Reported Nov 10 11:00 PM — Nov 25 11:00 PM, Słupsk, Weather by CustomWeather, © 2015

Note: Actual official high and low records may vary slightly from our data, if they occured in-between our weather recording intervals... More about our weather records


Słupsk weather history for previous 24 hours

Time TempWeatherWind HumidityBarometerVisibility
11:00 PM
Wed, Nov 25
32 °FLight snow. Partly cloudy.3 mph87%29.71 "Hg4 mi
10:30 PM32 °FLight snow. Passing clouds.5 mph87%29.71 "Hg4 mi
10:00 PM30 °FLight snow. Passing clouds.5 mph93%29.71 "Hg4 mi
9:30 PM30 °FLight snow. Passing clouds.6 mph93%29.71 "Hg4 mi
9:00 PM30 °FLight snow. Passing clouds.5 mph93%29.68 "Hg4 mi
8:30 PM32 °FLight snow. Ice fog.6 mph87%29.71 "Hg3 mi
8:00 PM32 °FLight snow. Ice fog.6 mph87%29.68 "Hg3 mi
7:30 PM32 °FLight snow. Passing clouds.6 mph87%29.68 "Hg4 mi
7:00 PM32 °FPassing clouds.6 mph80%29.68 "Hg4 mi
6:30 PM30 °FPassing clouds.5 mph93%29.68 "Hg4 mi
6:00 PM30 °FPassing clouds.6 mph93%29.68 "Hg4 mi
5:30 PM30 °FLight snow. Passing clouds.6 mph93%29.68 "Hg4 mi
5:00 PM30 °FLight snow. Ice fog.7 mph93%29.68 "Hg2 mi
4:30 PM32 °FPassing clouds.7 mph80%29.71 "Hg5 mi
4:00 PM32 °FPassing clouds.6 mph80%29.68 "Hg5 mi
3:30 PM32 °FScattered clouds.7 mph80%29.68 "Hg5 mi
3:00 PM32 °FScattered clouds.6 mph80%29.68 "Hg5 mi
2:30 PM32 °FClear.6 mph80%29.71 "Hg4 mi
2:00 PM32 °FClear.7 mph80%29.71 "Hg4 mi
1:30 PM32 °FClear.7 mph80%29.71 "Hg5 mi
1:00 PM32 °FClear.7 mph80%29.71 "Hg5 mi
12:30 PM32 °FClear.7 mph75%29.71 "Hg5 mi
12:00 PM32 °FClear.7 mph75%29.74 "Hg5 mi
11:30 AM32 °FClear.7 mph75%29.74 "Hg5 mi
11:00 AM30 °FClear.9 mph80%29.74 "Hg5 mi
10:30 AM30 °FPassing clouds.9 mph80%29.77 "HgN/A
10:00 AM28 °FPassing clouds.9 mph86%29.77 "HgN/A
9:30 AM28 °FClear.9 mph86%29.77 "Hg5 mi
9:00 AM27 °FClear.8 mph93%29.77 "Hg5 mi
8:00 AM27 °FPassing clouds.6 mph93%29.80 "HgN/A
7:00 AM27 °FPassing clouds.8 mph93%29.80 "HgN/A
6:30 AM28 °FPassing clouds.7 mph86%29.80 "HgN/A
6:00 AM28 °FPassing clouds.8 mph86%29.80 "HgN/A
5:30 AM28 °FPassing clouds.8 mph86%29.80 "HgN/A
5:00 AM28 °FPassing clouds.6 mph86%29.83 "HgN/A
4:30 AM30 °FPassing clouds.8 mph80%29.83 "HgN/A
4:00 AM30 °FPassing clouds.8 mph80%29.83 "HgN/A
3:30 AM30 °FPassing clouds.9 mph80%29.83 "HgN/A
3:00 AM32 °FPassing clouds.12 mph75%29.86 "HgN/A
2:30 AM32 °FPassing clouds.12 mph75%29.86 "HgN/A
2:00 AM32 °FPassing clouds.10 mph80%29.89 "HgN/A
1:00 AM32 °FPassing clouds.9 mph80%29.89 "HgN/A
12:30 AM32 °FPassing clouds.9 mph80%29.92 "HgN/A
12:00 AM32 °FPassing clouds.10 mph80%29.92 "HgN/A
Weather by CustomWeather, © 2015

See weather overviewHow to use our weather pages